TimeADT,TemperatureF,Dew PointF,Humidity,Sea Level PressureIn,VisibilityMPH,Wind Direction,Wind SpeedMPH,Gust SpeedMPH,PrecipitationIn,Events,Conditions,WindDirDegrees,DateUTC
12:20 AM,48.4,46.0,92,-9999,-9999.0,NNE,9.2,-,N/A,,Unknown,20,2012-10-28 03:20:00
12:40 AM,48.9,46.4,91,-9999,-9999.0,North,11.5,-,N/A,,Unknown,10,2012-10-28 03:40:00
1:00 AM,49.5,46.9,91,30.08,-9999.0,North,11.5,-,N/A,,Unknown,10,2012-10-28 04:00:00
1:20 AM,48.9,46.6,92,-9999,-9999.0,NNE,8.1,-,N/A,,Unknown,20,2012-10-28 04:20:00
1:40 AM,48.9,46.6,92,-9999,-9999.0,NNW,8.1,-,N/A,,Unknown,340,2012-10-28 04:40:00
2:00 AM,46.4,43.9,91,30.08,-9999.0,NNE,11.5,-,N/A,,Unknown,30,2012-10-28 05:00:00
2:20 AM,47.1,45.7,95,-9999,-9999.0,North,5.8,-,N/A,,Unknown,10,2012-10-28 05:20:00
3:00 AM,47.7,45.3,92,30.06,-9999.0,NNE,9.2,-,N/A,,Unknown,30,2012-10-28 06:00:00
3:20 AM,48.6,46.0,91,-9999,-9999.0,NNE,11.5,-,N/A,,Unknown,20,2012-10-28 06:20:00
3:40 AM,47.7,45.5,92,-9999,-9999.0,NE,8.1,-,N/A,,Unknown,40,2012-10-28 06:40:00
4:00 AM,47.1,45.0,92,30.05,-9999.0,NNE,11.5,-,N/A,,Unknown,30,2012-10-28 07:00:00
4:20 AM,48.6,46.6,93,-9999,-9999.0,NNE,10.4,-,N/A,,Unknown,20,2012-10-28 07:20:00
4:40 AM,48.9,46.9,93,-9999,-9999.0,North,10.4,-,N/A,,Unknown,360,2012-10-28 07:40:00
5:00 AM,48.7,46.6,92,30.06,-9999.0,North,11.5,-,N/A,,Unknown,360,2012-10-28 08:00:00
5:20 AM,48.6,46.2,92,-9999,-9999.0,NNE,9.2,-,N/A,,Unknown,20,2012-10-28 08:20:00
5:40 AM,48.7,46.2,91,-9999,-9999.0,North,11.5,-,N/A,,Unknown,10,2012-10-28 08:40:00
6:00 AM,48.6,45.7,90,30.05,-9999.0,NNE,11.5,-,N/A,,Unknown,20,2012-10-28 09:00:00
6:20 AM,48.6,45.9,90,-9999,-9999.0,North,11.5,-,N/A,,Unknown,360,2012-10-28 09:20:00
6:40 AM,48.9,46.0,90,-9999,-9999.0,North,11.5,-,N/A,,Unknown,360,2012-10-28 09:40:00
7:00 AM,49.1,46.4,90,30.03,-9999.0,NNW,15.0,-,N/A,,Unknown,340,2012-10-28 10:00:00
7:20 AM,50.0,47.5,91,-9999,-9999.0,NNW,15.0,-,N/A,,Unknown,340,2012-10-28 10:20:00
7:40 AM,50.2,47.8,92,-9999,-9999.0,NNW,15.0,-,N/A,,Unknown,330,2012-10-28 10:40:00
8:00 AM,51.4,49.1,92,30.03,-9999.0,NNW,16.1,-,N/A,,Unknown,330,2012-10-28 11:00:00
8:20 AM,52.2,49.5,91,-9999,-9999.0,North,9.2,-,N/A,,Unknown,360,2012-10-28 11:20:00
8:40 AM,52.3,49.6,91,-9999,-9999.0,North,6.9,-,N/A,,Unknown,360,2012-10-28 11:40:00
9:00 AM,54.5,50.7,87,30.04,-9999.0,NW,16.1,-,N/A,,Unknown,320,2012-10-28 12:00:00
9:20 AM,56.5,52.0,85,-9999,-9999.0,NW,3.5,-,N/A,,Unknown,320,2012-10-28 12:20:00
9:40 AM,60.3,54.7,82,-9999,-9999.0,NNW,1.2,-,N/A,,Unknown,330,2012-10-28 12:40:00
10:00 AM,58.5,52.9,82,30.04,-9999.0,North,12.7,-,N/A,,Unknown,360,2012-10-28 13:00:00
10:20 AM,58.3,52.5,81,-9999,-9999.0,North,11.5,-,N/A,,Unknown,350,2012-10-28 13:20:00
10:40 AM,57.4,52.3,83,-9999,-9999.0,West,2.3,-,N/A,,Unknown,260,2012-10-28 13:40:00
11:00 AM,57.9,52.9,83,30.04,-9999.0,NW,12.7,-,N/A,,Unknown,320,2012-10-28 14:00:00
11:20 AM,59.0,53.6,82,-9999,-9999.0,NNE,6.9,-,N/A,,Unknown,30,2012-10-28 14:20:00
11:40 AM,61.5,54.3,77,-9999,-9999.0,NE,9.2,-,N/A,,Unknown,50,2012-10-28 14:40:00
12:00 PM,56.8,52.0,84,30.04,-9999.0,NNW,11.5,-,N/A,,Unknown,340,2012-10-28 15:00:00
12:20 PM,56.8,52.5,85,-9999,-9999.0,NNW,13.8,-,N/A,,Unknown,340,2012-10-28 15:20:00
12:40 PM,57.7,52.5,83,-9999,-9999.0,NNE,12.7,-,N/A,,Unknown,20,2012-10-28 15:40:00
1:00 PM,55.4,51.3,86,30.04,-9999.0,North,15.0,-,N/A,,Unknown,350,2012-10-28 16:00:00
1:40 PM,56.5,52.2,85,-9999,-9999.0,NNW,11.5,-,N/A,,Unknown,340,2012-10-28 16:40:00
2:00 PM,61.3,55.4,81,30.02,-9999.0,NE,15.0,-,N/A,,Unknown,50,2012-10-28 17:00:00
2:20 PM,63.1,54.7,74,-9999,-9999.0,ENE,9.2,-,N/A,,Unknown,60,2012-10-28 17:20:00
2:40 PM,62.8,54.1,73,-9999,-9999.0,East,11.5,20.7,N/A,,Unknown,80,2012-10-28 17:40:00
3:00 PM,61.9,53.8,75,30.02,-9999.0,ENE,11.5,21.9,N/A,,Unknown,60,2012-10-28 18:00:00
3:20 PM,61.5,53.6,75,-9999,-9999.0,NE,10.4,21.9,N/A,,Unknown,50,2012-10-28 18:20:00
3:40 PM,61.3,53.2,75,-9999,-9999.0,NE,9.2,17.3,N/A,,Unknown,50,2012-10-28 18:40:00
4:00 PM,60.6,52.9,76,30.03,-9999.0,ENE,16.1,27.6,N/A,,Unknown,60,2012-10-28 19:00:00
4:20 PM,60.3,52.7,76,-9999,-9999.0,East,12.7,27.6,N/A,,Unknown,80,2012-10-28 19:20:00
4:40 PM,60.1,52.7,77,-9999,-9999.0,East,24.2,35.7,N/A,,Unknown,90,2012-10-28 19:40:00
5:00 PM,60.1,52.7,77,29.99,-9999.0,East,27.6,40.3,N/A,,Unknown,90,2012-10-28 20:00:00
5:20 PM,60.3,52.3,75,-9999,-9999.0,East,28.8,42.6,N/A,,Unknown,100,2012-10-28 20:20:00
5:40 PM,59.7,52.3,77,-9999,-9999.0,East,28.8,46.0,N/A,,Unknown,90,2012-10-28 20:40:00
6:00 PM,59.5,52.2,77,29.98,-9999.0,East,34.5,47.2,N/A,,Unknown,90,2012-10-28 21:00:00
6:20 PM,59.5,52.3,77,-9999,-9999.0,East,38.0,52.9,N/A,,Unknown,90,2012-10-28 21:20:00
6:40 PM,59.7,52.3,77,-9999,-9999.0,East,39.1,55.2,N/A,,Unknown,90,2012-10-28 21:40:00
7:00 PM,59.9,52.3,76,29.98,-9999.0,East,39.1,56.4,N/A,,Unknown,90,2012-10-28 22:00:00
7:20 PM,60.1,52.3,76,-9999,-9999.0,East,39.1,56.4,N/A,,Unknown,100,2012-10-28 22:20:00
7:40 PM,60.3,52.3,75,-9999,-9999.0,East,42.6,71.3,N/A,,Unknown,100,2012-10-28 22:40:00
8:00 PM,60.1,52.3,76,29.98,-9999.0,East,44.9,61.0,N/A,,Unknown,100,2012-10-28 23:00:00
8:20 PM,59.7,52.7,78,-9999,-9999.0,East,42.6,58.7,N/A,,Unknown,100,2012-10-28 23:20:00
8:40 PM,60.1,52.3,76,-9999,-9999.0,East,47.2,70.2,N/A,,Unknown,100,2012-10-28 23:40:00
9:00 PM,59.9,52.3,76,29.93,-9999.0,East,49.5,63.3,N/A,,Unknown,90,2012-10-29 00:00:00
9:20 PM,60.6,52.3,74,-9999,-9999.0,East,42.6,66.7,N/A,,Unknown,100,2012-10-29 00:20:00
9:40 PM,60.1,52.2,75,-9999,-9999.0,East,27.6,59.8,N/A,,Unknown,100,2012-10-29 00:40:00
10:00 PM,59.5,51.8,76,30.02,-9999.0,ESE,49.5,-,N/A,,Unknown,120,2012-10-29 01:00:00
10:20 PM,59.0,51.6,76,-9999,-9999.0,ENE,17.3,42.6,N/A,,Unknown,60,2012-10-29 01:20:00
10:40 PM,59.0,51.6,76,-9999,-9999.0,NNE,11.5,26.5,N/A,,Unknown,30,2012-10-29 01:40:00
11:00 PM,58.8,51.6,77,30.03,-9999.0,NE,17.3,28.8,N/A,,Unknown,40,2012-10-29 02:00:00
11:20 PM,58.1,51.4,78,-9999,-9999.0,ENE,8.1,18.4,N/A,,Unknown,60,2012-10-29 02:20:00
11:40 PM,58.1,51.3,78,-9999,-9999.0,East,9.2,20.7,N/A,,Unknown,80,2012-10-29 02:40:00